Retour au catalogue

USA 112

ActifMilitaireHEO
NORAD 23609·PAYLOAD·🇺🇸 United States

Lancé Jul 10, 1995 depuis Cape Canaveral Space Force Station

Loading…

Prochains Passages (prochaines 24 heures)

TLE

FraisSource: Mike McCants

Époque: Sep 14, 2026, 21:41 UTC

1 23609U 95034A   26257.90377370 -.00000572  00000-0  00000-0 0    07
2 23609  63.3156 101.9757 6930099 270.4766  17.3281  2.00591770  4573

Suivez USA 112 en temps réel avec AllMySat

Download on the App Store